This is the latest recevied weather packets stored in our database for station/object N8SDR. If no packets are shown the sender has not sent any weather packets the latest 10 day(s).
| Time | Temp. | Humidity | Pressure | Rain* | Wind** | Luminosity | Snow |
|---|---|---|---|---|---|---|---|
| 1777747139 | 11.67° C | 47% | 1014.3 hPa | 0 mm | - | 287 W/m² | - |
| 1777746835 | 11.67° C | 48% | 1014.2 hPa | 0 mm | - | 807 W/m² | - |
| 1777746531 | 11.67° C | 49% | 1014.3 hPa | 0 mm | - | 891 W/m² | - |
| 1777746227 | 11.67° C | 48% | 1014.3 hPa | 0 mm | - | 842 W/m² | - |
| 1777745923 | 11.11° C | 47% | 1014.1 hPa | 0 mm | - | 835 W/m² | - |
| 1777745622 | 11.11° C | 46% | 1014.3 hPa | 0 mm | - | 229 W/m² | - |
| 1777745320 | 11.67° C | 45% | 1014.4 hPa | 0 mm | - | 230 W/m² | - |
| 1777745016 | 12.22° C | 45% | 1014.4 hPa | 0 mm | - | 815 W/m² | - |
| 1777744712 | 11.67° C | 49% | 1014.3 hPa | 0 mm | - | 805 W/m² | - |
| 1777744406 | 11.11° C | 48% | 1014.4 hPa | 0 mm | - | 815 W/m² | - |
| 1777744104 | 11.67° C | 47% | 1014.4 hPa | 0 mm | - | 825 W/m² | - |
| 1777743801 | 11.11° C | 47% | 1014.5 hPa | 0 mm | - | 780 W/m² | - |
| 1777743497 | 11.67° C | 47% | 1014.6 hPa | 0 mm | - | 810 W/m² | - |
| 1777743195 | 11.11° C | 48% | 1014.6 hPa | 0 mm | - | 810 W/m² | - |
| 1777742893 | 11.67° C | 48% | 1014.5 hPa | 0 mm | - | 250 W/m² | - |
| 1777742589 | 11.11° C | 46% | 1014.3 hPa | 0 mm | - | 860 W/m² | - |
| 1777742285 | 11.11° C | 49% | 1014.6 hPa | 0 mm | - | 770 W/m² | - |
| 1777741982 | 10.56° C | 51% | 1014.6 hPa | 0 mm | - | 199 W/m² | - |
| 1777741679 | 10.56° C | 49% | 1014.9 hPa | 0 mm | - | 792 W/m² | - |
| 1777741375 | 10.56° C | 51% | 1014.8 hPa | 0 mm | - | 814 W/m² | - |
| 1777741071 | 11.11° C | 48% | 1014.8 hPa | 0 mm | - | 176 W/m² | - |
| 1777740769 | 11.11° C | 51% | 1014.8 hPa | 0 mm | - | 780 W/m² | - |
| 1777740465 | 10.56° C | 51% | 1014.7 hPa | 0 mm | - | 781 W/m² | - |
| 1777740163 | 10.56° C | 52% | 1014.8 hPa | 0 mm | - | 806 W/m² | - |
| 1777739858 | 10.56° C | 51% | 1014.9 hPa | 0 mm | - | 836 W/m² | - |
* Rain latest hour (hover to see other rain measurements)
** Current wind speed in m/s (hover to see current wind gust speed)